Date String (YYYY-MM-DD hh:mm:ss) UTC,Instrument flags,Ambient pressure (hPa),Sample flow (lpm),Bypass flow (lpm),Sample temperature (°C),Ambient temperature (°C),ASC tube jacket temperature (°C),LED temperature (°C),Box temperature (°C),Sample RH (%),Span deviation,Mass concentration (μg/m³),Mass concentration (μg/m³),Mass concentration (μg/m³)
DateTimeUTC,F1_M11,P_M11,Q1_M11,Q2_M11,T1_M11,T2_M11,T3_M11,T4_M11,T5_M11,U1_M11,ZSPAN_M11,X0_M11,X2_M11,X1_M11
2023-04-08 17:00:00,,0830.1,5.00,0.00,23.6,22.2,00.0,31.8,25.2,14.4,0000.0,0015.20,0004.56,0003.30
2023-04-08 17:01:00,,0830.1,5.00,0.00,23.6,22.2,00.0,31.9,25.2,14.4,0000.0,0014.76,0004.52,0003.30
2023-04-08 17:02:00,,0830.1,5.00,0.00,23.6,22.2,00.0,31.9,25.2,14.2,0000.0,0014.04,0004.55,0003.31
2023-04-08 17:03:00,,0830.1,4.99,0.00,23.6,22.2,00.0,31.9,25.2,14.5,0000.0,0014.27,0004.56,0003.31
2023-04-08 17:04:00,,0830.1,5.00,0.00,23.6,22.2,00.0,31.9,25.2,14.2,0000.0,0014.17,0004.58,0003.29
2023-04-08 17:05:00,,0830.1,5.01,0.00,23.6,22.2,00.0,31.9,25.3,14.1,0000.0,0013.26,0004.61,0003.28
2023-04-08 17:06:00,,0830.1,5.00,0.00,23.7,22.2,00.0,31.9,25.3,14.0,0000.0,0013.14,0004.70,0003.27
2023-04-08 17:07:00,,0830.1,5.00,0.00,23.7,22.3,00.0,31.9,25.3,13.8,0000.0,0012.42,0004.70,0003.25
2023-04-08 17:08:00,,0830.1,4.99,0.00,23.7,22.3,00.0,31.9,25.3,13.9,0000.0,0012.76,0004.69,0003.24
2023-04-08 17:09:00,,0830.1,5.01,0.00,23.7,22.3,00.0,31.9,25.3,13.6,0000.0,0013.46,0004.65,0003.23
2023-04-08 17:10:00,,0830.1,5.01,0.00,23.7,22.3,00.0,31.9,25.3,13.7,0000.0,0013.81,0004.68,0003.21
2023-04-08 17:11:00,,0830.1,5.01,0.00,23.7,22.3,00.0,31.9,25.3,13.6,0000.0,0013.85,0004.71,0003.20
2023-04-08 17:12:00,,0830.1,4.99,0.00,23.7,22.3,00.0,32.0,25.3,13.5,0000.0,0014.51,0004.77,0003.18
2023-04-08 17:13:00,,0830.1,4.99,0.00,23.7,22.3,00.0,32.0,25.3,13.6,0000.0,0014.83,0004.73,0003.17
2023-04-08 17:14:00,,0830.1,5.02,0.00,23.7,22.3,00.0,32.0,25.3,13.7,0000.0,0014.57,0004.72,0003.15
2023-04-08 17:15:00,,0830.1,5.01,0.00,23.7,22.3,00.0,32.0,25.4,13.6,0000.0,0014.16,0004.66,0003.15
2023-04-08 17:16:00,,0830.1,5.00,0.00,23.7,22.3,00.0,32.0,25.4,13.4,0000.0,0013.94,0004.65,0003.15
2023-04-08 17:17:00,,0830.1,4.99,0.00,23.8,22.3,00.0,32.0,25.3,13.6,0000.0,0013.53,0004.56,0003.14
2023-04-08 17:18:00,,0830.1,5.01,0.00,23.8,22.3,00.0,32.0,25.3,13.6,0000.0,0013.58,0004.55,0003.15
2023-04-08 17:19:00,,0830.1,5.00,0.00,23.8,22.3,00.0,32.0,25.3,13.6,0000.0,0012.77,0004.51,0003.14
2023-04-08 17:20:00,,0830.1,5.00,0.00,23.8,22.3,00.0,32.0,25.4,13.6,0000.0,0012.49,0004.49,0003.13
2023-04-08 17:21:00,,0830.1,4.99,0.00,23.8,22.3,00.0,32.0,25.4,13.7,0000.0,0011.53,0004.44,0003.13
2023-04-08 17:22:00,,0830.1,5.00,0.00,23.8,22.3,00.0,32.0,25.4,13.6,0000.0,0011.54,0004.45,0003.14
2023-04-08 17:23:00,,0830.1,5.00,0.00,23.8,22.3,00.0,32.0,25.4,13.6,0000.0,0010.95,0004.42,0003.14
2023-04-08 17:24:00,,0830.1,5.01,0.00,23.8,22.3,00.0,32.0,25.4,13.7,0000.0,0010.51,0004.45,0003.15
2023-04-08 17:25:00,,0830.1,5.00,0.00,23.8,22.4,00.0,32.0,25.4,13.5,0000.0,0010.44,0004.41,0003.15
2023-04-08 17:26:00,,0830.0,5.00,0.00,23.8,22.4,00.0,32.1,25.4,13.4,0000.0,0010.62,0004.43,0003.15
2023-04-08 17:27:00,,0830.0,4.99,0.00,23.8,22.4,00.0,32.1,25.4,13.4,0000.0,0010.47,0004.35,0003.14
2023-04-08 17:28:00,,0830.0,4.99,0.00,23.8,22.4,00.0,32.1,25.4,13.4,0000.0,0011.00,0004.33,0003.14
2023-04-08 17:29:00,,0830.1,5.01,0.00,23.8,22.4,00.0,32.1,25.4,13.5,0000.0,0011.33,0004.33,0003.14
2023-04-08 17:30:00,,0830.0,4.99,0.00,23.8,22.4,00.0,32.1,25.4,13.6,0000.0,0011.03,0004.35,0003.14
2023-04-08 17:31:00,,0830.0,5.00,0.00,23.8,22.4,00.0,32.1,25.5,13.5,0000.0,0010.85,0004.35,0003.13
2023-04-08 17:32:00,,0830.0,5.00,0.00,23.9,22.5,00.0,32.1,25.5,13.6,0000.0,0011.82,0004.33,0003.12
2023-04-08 17:33:00,,0830.0,5.00,0.00,23.9,22.5,00.0,32.1,25.5,13.7,0000.0,0011.96,0004.31,0003.11
2023-04-08 17:34:00,,0830.0,5.00,0.00,23.9,22.5,00.0,32.1,25.5,13.7,0000.0,0012.87,0004.26,0003.10
2023-04-08 17:35:00,,0830.0,5.01,0.00,23.9,22.5,00.0,32.1,25.5,13.7,0000.0,0013.45,0004.24,0003.09
2023-04-08 17:36:00,,0830.0,5.01,0.00,23.9,22.5,00.0,32.1,25.5,13.7,0000.0,0014.20,0004.28,0003.08
2023-04-08 17:37:00,,0830.0,4.99,0.00,23.9,22.5,00.0,32.1,25.5,13.4,0000.0,0014.77,0004.31,0003.06
2023-04-08 17:38:00,,0830.1,4.99,0.00,23.9,22.5,00.0,32.1,25.5,13.8,0000.0,0015.31,0004.34,0003.05
2023-04-08 17:39:00,,0830.0,4.99,0.00,23.9,22.5,00.0,32.2,25.5,13.5,0000.0,0015.33,0004.43,0003.05
2023-04-08 17:40:00,,0830.1,5.00,0.00,23.9,22.5,00.0,32.2,25.5,13.6,0000.0,0015.52,0004.45,0003.02
2023-04-08 17:41:00,,0830.0,5.01,0.00,23.9,22.5,00.0,32.2,25.5,13.6,0000.0,0015.30,0004.42,0002.99
2023-04-08 17:42:00,,0830.0,5.01,0.00,24.0,22.5,00.0,32.2,25.5,13.3,0000.0,0015.32,0004.47,0003.02
2023-04-08 17:43:00,,0830.1,5.00,0.00,24.0,22.5,00.0,32.2,25.5,13.7,0000.0,0014.40,0004.49,0003.02
2023-04-08 17:44:00,,0830.0,4.99,0.00,24.0,22.5,00.0,32.2,25.5,13.6,0000.0,0014.54,0004.52,0003.04
2023-04-08 17:45:00,,0830.1,5.00,0.00,24.0,22.5,00.0,32.2,25.5,13.7,0000.0,0013.51,0004.51,0003.05
2023-04-08 17:46:00,,0830.0,5.01,0.00,24.0,22.5,00.0,32.2,25.5,14.1,0000.0,0013.37,0004.50,0003.04
2023-04-08 17:47:00,,0830.0,5.01,0.00,24.0,22.6,00.0,32.2,25.5,14.3,0000.0,0013.01,0004.47,0003.04
2023-04-08 17:48:00,,0830.1,4.99,0.00,24.0,22.6,00.0,32.2,25.5,14.7,0000.0,0013.06,0004.48,0003.05
2023-04-08 17:49:00,,0830.0,4.99,0.00,24.0,22.6,00.0,32.2,25.5,14.4,0000.0,0012.93,0004.47,0003.07
2023-04-08 17:50:00,,0830.0,5.01,0.00,24.0,22.6,00.0,32.2,25.5,14.0,0000.0,0012.84,0004.43,0003.07
2023-04-08 17:51:00,,0830.0,5.01,0.00,24.0,22.6,00.0,32.3,25.6,14.0,0000.0,0013.42,0004.43,0003.07
2023-04-08 17:52:00,,0830.0,4.99,0.00,24.0,22.6,00.0,32.3,25.5,13.8,0000.0,0014.14,0004.46,0003.07
2023-04-08 17:53:00,,0830.0,5.00,0.00,24.0,22.6,00.0,32.3,25.6,14.0,0000.0,0015.52,0004.47,0003.09
2023-04-08 17:54:00,,0830.0,5.02,0.00,24.0,22.6,00.0,32.3,25.6,14.1,0000.0,0016.06,0004.49,0003.09
2023-04-08 17:55:00,,0830.1,5.00,0.00,24.0,22.6,00.0,32.3,25.6,14.3,0000.0,0016.21,0004.55,0003.10
2023-04-08 17:56:00,,0830.0,4.99,0.00,24.1,22.7,00.0,32.3,25.6,14.2,0000.0,0016.45,0004.64,0003.11
2023-04-08 17:57:00,,0830.0,5.00,0.00,24.1,22.7,00.0,32.3,25.6,14.3,0000.0,0015.97,0004.63,0003.11
2023-04-08 17:58:00,,0830.0,5.00,0.00,24.1,22.7,00.0,32.3,25.7,14.1,0000.0,0016.10,0004.64,0003.12
2023-04-08 17:59:00,,0830.0,5.00,0.00,24.1,22.7,00.0,32.3,25.7,13.9,0000.0,0015.56,0004.57,0003.12
